Hourly Data Report for October 06, 2016

All times are specified in Local Standard Time (LST). Add 1 hour to adjust for Daylight Saving Time where and when it is observed.

SAINT JOHN A
NEW BRUNSWICK

45°18'58.000" N
65°53'24.000" W
108.80 m
8104901
71609
YSJ

Download Data

Hourly Data (October 2016)
Hourly Data Report for October 6, 2016
Temp Definition
°C
Dew Point Temp Definition
°C
Rel Hum Definition
%
Wind Dir Definition
10's deg

Wind Spd Definition
km/h
Visibility Definition
km
Stn Press Definition
kPa
Hmdx Definition


Wind Chill Definition


Weather Definition


TIME
00:00 Legend Double Dagger 2.4 2.4 100 0 1 24.1 101.17     LegendNANA
01:00 Legend Double Dagger 1.7 1.7 100 36 2 24.1 101.17     LegendNANA
02:00 Legend Double Dagger 1.3 1.3 100 3 5 24.1 101.16     Clear
03:00 Legend Double Dagger 1.4 1.4 100 6 5 24.1 101.11     LegendNANA
04:00 Legend Double Dagger 0.6 0.6 100 36 3 12.9 101.12     LegendNANA
05:00 Legend Double Dagger 2.3 2.3 100 36 3 2.4 101.13     Fog
06:00 Legend Double Dagger 1.3 1.3 100 1 4 0.8 101.11     Fog
07:00 Legend Double Dagger 1.7 1.7 100 1 3 1.2 101.15     Fog
08:00 Legend Double Dagger 8.6 8.6 100 36 2 24.1 101.14     Clear
09:00 Legend Double Dagger 13.2 10.6 84 1 5 24.1 101.15     LegendNANA
10:00 Legend Double Dagger 16.7 11.1 69 36 1 24.1 101.16     LegendNANA
11:00 Legend Double Dagger 18.7 10.4 58 25 7 24.1 101.10     Clear
12:00 Legend Double Dagger 19.9 9.3 50 26 13 24.1 101.06     LegendNANA
13:00 Legend Double Dagger 20.5 9.9 50 26 13 24.1 100.99     LegendNANA
14:00 Legend Double Dagger 19.4 10.8 57 19 18 24.1 100.95     Clear
15:00 Legend Double Dagger 18.7 10.6 59 20 19 24.1 100.96     LegendNANA
16:00 Legend Double Dagger 17.4 10.8 65 19 17 24.1 100.93     LegendNANA
17:00 Legend Double Dagger 16.5 10.6 68 22 16 24.1 100.94     Clear
18:00 Legend Double Dagger 13.1 10.3 83 21 8 24.1 100.99     LegendNANA
19:00 Legend Double Dagger 11.2 10.4 95 19 8 24.1 101.01     LegendNANA
20:00 Legend Double Dagger 9.6 9.5 99 22 6 24.1 101.05     Clear
21:00 Legend Double Dagger 7.7 7.7 100 36 3 24.1 101.07     LegendNANA
22:00 Legend Double Dagger 6.0 6.0 100 36 2 24.1 101.10     LegendNANA
23:00 Legend Double Dagger 5.5 5.5 100 36 2 24.1 101.07     Clear

Notes on Data Quality.

Legend

  • E = Estimated
  • M = Missing
  • NA = Not Available
  • ‡ = Partner data that is not subject to review by the National Climate Archives
Date modified: